| time (UTC) | temp F | wind direction | speed MPH | gust MPH | rain 1hr in | rain 24hr in | rain mn in | humidity % | barometer mb |
| 20260509215013 | 44 | 61 | 3.0 | 3.0 | 0.07 | 0.29 | 0.29 | 99 | 1014.1 |
| 20260509214510 | 44 | 38 | 1.0 | 2.0 | 0.05 | 0.28 | 0.28 | 99 | 1014.4 |
| 20260509214007 | 44 | 9 | 1.0 | 1.0 | 0.12 | 0.28 | 0.28 | 99 | 1014.3 |
| 20260509213503 | 44 | 41 | 1.0 | 1.0 | 0.12 | 0.27 | 0.27 | 99 | 1014.4 |
| 20260509213000 | 44 | 268 | 2.0 | 2.0 | 0.05 | 0.26 | 0.26 | 99 | 1014.3 |
| 20260509212457 | 44 | 41 | 2.0 | 3.0 | 0.07 | 0.25 | 0.25 | 99 | 1014.4 |
| 20260509211953 | 45 | 153 | 2.0 | 3.0 | 0.07 | 0.25 | 0.25 | 99 | 1014.4 |
| 20260509211449 | 45 | 148 | 2.0 | 3.0 | 0.00 | 0.24 | 0.24 | 99 | 1014.3 |
| 20260509210945 | 45 | 283 | 0.0 | 0.0 | 0.05 | 0.24 | 0.24 | 99 | 1014.4 |
| 20260509210437 | 45 | 81 | 2.0 | 3.0 | 0.05 | 0.24 | 0.24 | 99 | 1014.2 |
| 20260509205933 | 45 | 352 | 1.0 | 2.0 | 0.00 | 0.23 | 0.23 | 99 | 1014.0 |
| 20260509205428 | 45 | 354 | 1.0 | 1.0 | 0.00 | 0.23 | 0.23 | 99 | 1013.7 |
| 20260509204923 | 45 | 36 | 1.0 | 2.0 | 0.00 | 0.23 | 0.23 | 99 | 1014.1 |
| 20260509204420 | 45 | 24 | 1.0 | 1.0 | 0.00 | 0.23 | 0.23 | 99 | 1014.5 |
| 20260509203917 | 45 | 169 | 1.0 | 2.0 | 0.00 | 0.23 | 0.23 | 99 | 1014.2 |
| 20260509203413 | 45 | 19 | 1.0 | 2.0 | 0.00 | 0.23 | 0.23 | 99 | 1014.2 |
| 20260509202910 | 46 | 346 | 1.0 | 2.0 | 0.00 | 0.23 | 0.23 | 99 | 1014.0 |
| 20260509202406 | 45 | 335 | 1.0 | 1.0 | 0.00 | 0.23 | 0.23 | 99 | 1014.0 |
| 20260509201901 | 45 | 19 | 3.0 | 3.0 | 0.00 | 0.23 | 0.23 | 99 | 1014.0 |
| 20260509201356 | 45 | 31 | 1.0 | 1.0 | 0.07 | 0.23 | 0.23 | 99 | 1014.5 |
| 20260509200853 | 45 | 33 | 2.0 | 4.0 | 0.07 | 0.23 | 0.23 | 99 | 1014.6 |
| 20260509200348 | 45 | 50 | 0.0 | 0.0 | 0.07 | 0.22 | 0.22 | 99 | 1014.9 |
| 20260509195845 | 45 | 309 | 1.0 | 1.0 | 0.07 | 0.22 | 0.22 | 99 | 1015.0 |
| 20260509195340 | 45 | 292 | 0.0 | 1.0 | 0.05 | 0.21 | 0.21 | 98 | 1015.0 |
| 20260509194839 | 45 | 275 | 1.0 | 1.0 | 0.12 | 0.21 | 0.21 | 98 | 1014.9 |
| 20260509194336 | 45 | 343 | 1.0 | 1.0 | 0.12 | 0.20 | 0.20 | 98 | 1015.0 |
| 20260509193833 | 45 | 272 | 1.0 | 1.0 | 0.05 | 0.19 | 0.19 | 98 | 1015.0 |
| 20260509193332 | 45 | 228 | 1.0 | 1.0 | 0.12 | 0.19 | 0.19 | 98 | 1015.1 |
| 20260509192829 | 45 | 237 | 0.0 | 1.0 | 0.12 | 0.18 | 0.18 | 98 | 1014.9 |
| 20260509192325 | 45 | 273 | 2.0 | 2.0 | 0.12 | 0.17 | 0.17 | 98 | 1014.9 |
| 20260509191820 | 45 | 86 | 2.0 | 2.0 | 0.12 | 0.16 | 0.16 | 97 | 1015.0 |
| 20260509191316 | 45 | 207 | 0.0 | 0.0 | 0.05 | 0.15 | 0.15 | 97 | 1015.0 |
| 20260509190812 | 45 | 223 | 1.0 | 2.0 | 0.07 | 0.14 | 0.14 | 97 | 1014.9 |
| 20260509190310 | 45 | 100 | 0.0 | 2.0 | 0.12 | 0.14 | 0.14 | 97 | 1015.1 |
| 20260509185807 | 45 | 180 | 1.0 | 1.0 | 0.12 | 0.13 | 0.13 | 97 | 1015.2 |
| 20260509185306 | 46 | 298 | 1.0 | 1.0 | 0.12 | 0.12 | 0.12 | 97 | 1015.2 |
| 20260509184800 | 46 | 188 | 2.0 | 3.0 | 0.12 | 0.11 | 0.11 | 96 | 1015.3 |
| 20260509184258 | 46 | 180 | 2.0 | 2.0 | 0.07 | 0.10 | 0.10 | 95 | 1015.4 |
| 20260509183754 | 46 | 36 | 3.0 | 3.0 | 0.07 | 0.09 | 0.09 | 94 | 1015.4 |
| 20260509183249 | 46 | 238 | 0.0 | 1.0 | 0.07 | 0.09 | 0.09 | 94 | 1015.5 |
| 20260509182745 | 46 | 241 | 1.0 | 1.0 | 0.05 | 0.08 | 0.08 | 93 | 1015.5 |
| 20260509182243 | 47 | 279 | 1.0 | 2.0 | 0.12 | 0.08 | 0.08 | 92 | 1015.4 |
| 20260509181740 | 47 | 168 | 2.0 | 2.0 | 0.07 | 0.07 | 0.07 | 93 | 1015.4 |
| 20260509181237 | 47 | 139 | 1.0 | 1.0 | 0.05 | 0.06 | 0.06 | 93 | 1015.3 |
| 20260509180734 | 47 | 307 | 0.0 | 0.0 | 0.05 | 0.06 | 0.06 | 93 | 1015.5 |
| 20260509180231 | 47 | 163 | 1.0 | 1.0 | 0.07 | 0.05 | 0.05 | 92 | 1015.4 |
| 20260509175727 | 47 | 285 | 0.0 | 1.0 | 0.12 | 0.05 | 0.05 | 91 | 1015.3 |
| 20260509175223 | 47 | 221 | 1.0 | 1.0 | 0.05 | 0.04 | 0.04 | 90 | 1015.5 |
| 20260509174719 | 47 | 198 | 1.0 | 2.0 | 0.12 | 0.04 | 0.04 | 88 | 1015.2 |
| 20260509174215 | 48 | 257 | 0.0 | 1.0 | 0.07 | 0.03 | 0.03 | 86 | 1015.2 |
| 20260509173711 | 49 | 213 | 1.0 | 1.0 | 0.05 | 0.02 | 0.02 | 86 | 1015.2 |
| 20260509173207 | 49 | 199 | 0.0 | 0.0 | 0.05 | 0.02 | 0.02 | 86 | 1015.3 |
| 20260509172703 | 49 | 291 | 0.0 | 0.0 | 0.00 | 0.01 | 0.01 | 84 | 1015.3 |
| 20260509172200 | 49 | 224 | 1.0 | 1.0 | 0.00 | 0.01 | 0.01 | 82 | 1015.1 |
| 20260509171655 | 50 | 266 | 2.0 | 2.0 | 0.07 | 0.01 | 0.01 | 81 | 1015.2 |
| 20260509171151 | 50 | 251 | 2.0 | 3.0 | 0.07 | 0.01 | 0.01 | 79 | 1015.2 |
| 20260509170649 | 50 | 151 | 0.0 | 0.0 | 0.00 | 0.00 | 0.00 | 80 | 1015.3 |
| 20260509170145 | 51 | 66 | 0.0 | 1.0 | 0.00 | 0.00 | 0.00 | 75 | 1015.2 |
| 20260509165643 | 50 | 217 | 2.0 | 3.0 | 0.00 | 0.00 | 0.00 | 74 | 1015.2 |
| 20260509165139 | 51 | 272 | 3.0 | 4.0 | 0.00 | 0.00 | 0.00 | 75 | 1015.2 |
| 20260509164635 | 51 | 208 | 2.0 | 2.0 | 0.00 | 0.00 | 0.00 | 73 | 1015.2 |
| 20260509164131 | 51 | 238 | 2.0 | 3.0 | 0.00 | 0.00 | 0.00 | 67 | 1015.4 |
| 20260509163628 | 52 | 226 | 1.0 | 2.0 | 0.00 | 0.00 | 0.00 | 64 | 1015.3 |
| 20260509163124 | 53 | 217 | 3.0 | 6.0 | 0.00 | 0.00 | 0.00 | 62 | 1015.4 |
| 20260509162621 | 53 | 206 | 2.0 | 3.0 | 0.00 | 0.00 | 0.00 | 62 | 1015.3 |
| 20260509162117 | 53 | 185 | 4.0 | 6.0 | 0.00 | 0.00 | 0.00 | 59 | 1015.2 |
| 20260509161614 | 54 | 234 | 2.0 | 3.0 | 0.00 | 0.00 | 0.00 | 56 | 1015.3 |
| 20260509161109 | 54 | 218 | 4.0 | 6.0 | 0.00 | 0.00 | 0.00 | 58 | 1015.3 |
| 20260509160605 | 54 | 235 | 3.0 | 3.0 | 0.00 | 0.00 | 0.00 | 56 | 1015.2 |
| 20260509160100 | 54 | 206 | 4.0 | 6.0 | 0.00 | 0.00 | 0.00 | 54 | 1015.1 |
| 20260509155557 | 54 | 161 | 3.0 | 4.0 | 0.00 | 0.00 | 0.00 | 54 | 1015.1 |
| 20260509155053 | 55 | 185 | 2.0 | 2.0 | 0.00 | 0.00 | 0.00 | 52 | 1015.2 |
| 20260509154549 | 55 | 213 | 4.0 | 7.0 | 0.00 | 0.00 | 0.00 | 48 | 1015.2 |
| 20260509154047 | 56 | 287 | 1.0 | 2.0 | 0.00 | 0.00 | 0.00 | 50 | 1015.1 |
| 20260509153544 | 55 | 262 | 1.0 | 1.0 | 0.00 | 0.00 | 0.00 | 46 | 1015.2 |
| 20260509153040 | 56 | 209 | 2.0 | 4.0 | 0.00 | 0.00 | 0.00 | 48 | 1015.2 |
| 20260509152536 | 57 | 150 | 1.0 | 2.0 | 0.00 | 0.00 | 0.00 | 51 | 1015.1 |
| 20260509152034 | 57 | 175 | 2.0 | 3.0 | 0.00 | 0.00 | 0.00 | 50 | 1014.9 |
| 20260509151530 | 56 | 264 | 1.0 | 1.0 | 0.00 | 0.00 | 0.00 | 50 | 1014.7 |
| 20260509151028 | 56 | 220 | 3.0 | 4.0 | 0.00 | 0.00 | 0.00 | 50 | 1014.9 |
| 20260509150525 | 56 | 140 | 3.0 | 3.0 | 0.00 | 0.00 | 0.00 | 47 | 1014.8 |
| 20260509150024 | 57 | 145 | 1.0 | 2.0 | 0.00 | 0.00 | 0.00 | 47 | 1014.7 |
| 20260509145519 | 57 | 300 | 1.0 | 2.0 | 0.00 | 0.00 | 0.00 | 47 | 1014.7 |
| 20260509145014 | 57 | 190 | 2.0 | 2.0 | 0.00 | 0.00 | 0.00 | 46 | 1014.6 |
| 20260509144511 | 58 | 94 | 2.0 | 2.0 | 0.00 | 0.00 | 0.00 | 45 | 1014.5 |
| 20260509144008 | 57 | 131 | 3.0 | 6.0 | 0.00 | 0.00 | 0.00 | 45 | 1014.7 |
| 20260509143505 | 59 | 229 | 3.0 | 3.0 | 0.00 | 0.00 | 0.00 | 44 | 1014.6 |
| 20260509143003 | 58 | 116 | 0.0 | 1.0 | 0.00 | 0.00 | 0.00 | 46 | 1014.4 |
| 20260509142458 | 58 | 157 | 3.0 | 4.0 | 0.00 | 0.00 | 0.00 | 46 | 1014.4 |
| 20260509141954 | 58 | 132 | 3.0 | 3.0 | 0.00 | 0.00 | 0.00 | 43 | 1014.4 |
| 20260509141450 | 58 | 254 | 0.0 | 1.0 | 0.00 | 0.00 | 0.00 | 49 | 1014.4 |
| 20260509140948 | 57 | 78 | 1.0 | 2.0 | 0.00 | 0.00 | 0.00 | 49 | 1014.6 |
| 20260509140444 | 58 | 278 | 3.0 | 4.0 | 0.00 | 0.00 | 0.00 | 44 | 1014.7 |
| 20260509135942 | 57 | 267 | 3.0 | 3.0 | 0.00 | 0.00 | 0.00 | 46 | 1014.5 |
| 20260509135439 | 58 | 66 | 4.0 | 4.0 | 0.00 | 0.00 | 0.00 | 45 | 1014.4 |
| 20260509134936 | 58 | 230 | 0.0 | 0.0 | 0.00 | 0.00 | 0.00 | 43 | 1014.5 |
| 20260509134434 | 58 | 237 | 1.0 | 1.0 | 0.00 | 0.00 | 0.00 | 46 | 1014.5 |
| 20260509133931 | 58 | 194 | 5.0 | 7.0 | 0.00 | 0.00 | 0.00 | 44 | 1014.7 |
| 20260509133427 | 57 | 254 | 0.0 | 0.0 | 0.00 | 0.00 | 0.00 | 50 | 1014.8 |
| 20260509132926 | 57 | 131 | 3.0 | 4.0 | 0.00 | 0.00 | 0.00 | 48 | 1014.5 |
| 20260509132424 | 56 | 191 | 1.0 | 2.0 | 0.00 | 0.00 | 0.00 | 53 | 1014.7 |
| 20260509131920 | 57 | 218 | 1.0 | 1.0 | 0.00 | 0.00 | 0.00 | 49 | 1014.7 |
| 20260509131418 | 56 | 256 | 0.0 | 0.0 | 0.00 | 0.00 | 0.00 | 49 | 1014.9 |
| 20260509130914 | 56 | 277 | 1.0 | 2.0 | 0.00 | 0.00 | 0.00 | 50 | 1014.7 |
| 20260509130409 | 55 | 155 | 2.0 | 2.0 | 0.00 | 0.00 | 0.00 | 56 | 1014.8 |
| 20260509125907 | 54 | 256 | 0.0 | 1.0 | 0.00 | 0.00 | 0.00 | 58 | 1014.9 |
| 20260509125404 | 55 | 145 | 1.0 | 1.0 | 0.00 | 0.00 | 0.00 | 57 | 1015.0 |
| 20260509124859 | 54 | 122 | 0.0 | 1.0 | 0.00 | 0.00 | 0.00 | 58 | 1015.0 |
| 20260509124356 | 54 | 177 | 2.0 | 2.0 | 0.00 | 0.00 | 0.00 | 56 | 1015.0 |
| 20260509123854 | 54 | 172 | 1.0 | 1.0 | 0.00 | 0.00 | 0.00 | 58 | 1015.1 |
| 20260509123351 | 54 | 296 | 0.0 | 1.0 | 0.00 | 0.00 | 0.00 | 58 | 1015.2 |
| 20260509122847 | 53 | 190 | 2.0 | 2.0 | 0.00 | 0.00 | 0.00 | 58 | 1015.0 |
| 20260509122344 | 53 | 255 | 1.0 | 2.0 | 0.00 | 0.00 | 0.00 | 60 | 1015.2 |
| 20260509121841 | 52 | 251 | 1.0 | 1.0 | 0.00 | 0.00 | 0.00 | 64 | 1015.2 |
| 20260509121338 | 51 | 287 | 0.0 | 0.0 | 0.00 | 0.00 | 0.00 | 64 | 1015.2 |
| 20260509120836 | 51 | 296 | 1.0 | 1.0 | 0.00 | 0.00 | 0.00 | 65 | 1015.2 |
| 20260509120334 | 50 | 283 | 0.0 | 0.0 | 0.00 | 0.00 | 0.00 | 66 | 1015.2 |
| 20260509115832 | 50 | 277 | 0.0 | 0.0 | 0.00 | 0.00 | 0.00 | 67 | 1015.1 |
| 20260509115328 | 50 | 272 | 0.0 | 0.0 | 0.00 | 0.00 | 0.00 | 69 | 1015.2 |
| 20260509114826 | 49 | 266 | 0.0 | 0.0 | 0.00 | 0.00 | 0.00 | 67 | 1015.2 |
| 20260509114325 | 50 | 242 | 1.0 | 1.0 | 0.00 | 0.00 | 0.00 | 72 | 1015.3 |
| 20260509113824 | 50 | 317 | 0.0 | 0.0 | 0.00 | 0.00 | 0.00 | 71 | 1015.1 |
| 20260509113320 | 49 | 274 | 0.0 | 0.0 | 0.00 | 0.00 | 0.00 | 72 | 1015.2 |
| 20260509112817 | 48 | 278 | 0.0 | 0.0 | 0.00 | 0.00 | 0.00 | 74 | 1015.3 |
| 20260509112314 | 47 | 271 | 0.0 | 0.0 | 0.00 | 0.00 | 0.00 | 77 | 1015.0 |
| 20260509111811 | 45 | 280 | 0.0 | 0.0 | 0.00 | 0.00 | 0.00 | 82 | 1015.3 |
| 20260509111308 | 44 | 278 | 0.0 | 0.0 | 0.00 | 0.00 | 0.00 | 84 | 1015.1 |
| 20260509110806 | 44 | 262 | 0.0 | 0.0 | 0.00 | 0.00 | 0.00 | 80 | 1015.4 |
| 20260509110302 | 45 | 277 | 0.0 | 0.0 | 0.00 | 0.00 | 0.00 | 78 | 1015.1 |
| 20260509105800 | 44 | 276 | 0.0 | 0.0 | 0.00 | 0.00 | 0.00 | 81 | 1015.0 |
| 20260509105258 | 42 | 281 | 0.0 | 0.0 | 0.00 | 0.00 | 0.00 | 85 | 1014.9 |
| 20260509104754 | 40 | 286 | 0.0 | 0.0 | 0.00 | 0.00 | 0.00 | 89 | 1015.1 |
| 20260509104251 | 39 | 298 | 0.0 | 0.0 | 0.00 | 0.00 | 0.00 | 90 | 1015.0 |
| 20260509103749 | 37 | 293 | 0.0 | 0.0 | 0.00 | 0.00 | 0.00 | 93 | 1014.9 |
| 20260509103246 | 36 | 305 | 0.0 | 0.0 | 0.00 | 0.00 | 0.00 | 94 | 1014.8 |
| 20260509102744 | 36 | 311 | 0.0 | 0.0 | 0.00 | 0.00 | 0.00 | 95 | 1014.7 |
| 20260509102241 | 35 | 306 | 0.0 | 0.0 | 0.00 | 0.00 | 0.00 | 96 | 1014.8 |
| 20260509101738 | 35 | 294 | 0.0 | 0.0 | 0.00 | 0.00 | 0.00 | 97 | 1014.6 |
| 20260509101234 | 34 | 305 | 0.0 | 0.0 | 0.00 | 0.00 | 0.00 | 97 | 1014.6 |
| 20260509100731 | 33 | 311 | 0.0 | 0.0 | 0.00 | 0.00 | 0.00 | 98 | 1014.4 |
| 20260509100228 | 32 | 285 | 0.0 | 0.0 | 0.00 | 0.00 | 0.00 | 98 | 1014.5 |
| 20260509095725 | 32 | 280 | 0.0 | 0.0 | 0.00 | 0.00 | 0.00 | 97 | 1014.3 |
| 20260509095222 | 32 | 294 | 0.0 | 0.0 | 0.00 | 0.00 | 0.00 | 97 | 1014.2 |
| 20260509094719 | 32 | 285 | 0.0 | 0.0 | 0.00 | 0.00 | 0.00 | 97 | 1014.1 |
| 20260509094216 | 32 | 285 | 0.0 | 0.0 | 0.00 | 0.00 | 0.00 | 97 | 1014.0 |
| 20260509093714 | 32 | 284 | 0.0 | 0.0 | 0.00 | 0.00 | 0.00 | 97 | 1014.1 |
| 20260509093211 | 32 | 287 | 0.0 | 0.0 | 0.00 | 0.00 | 0.00 | 97 | 1014.0 |
| 20260509092709 | 32 | 274 | 0.0 | 0.0 | 0.00 | 0.00 | 0.00 | 97 | 1014.1 |
| 20260509092207 | 32 | 289 | 0.0 | 0.0 | 0.00 | 0.00 | 0.00 | 97 | 1013.9 |
| 20260509091705 | 32 | 296 | 0.0 | 0.0 | 0.00 | 0.00 | 0.00 | 96 | 1013.7 |
| 20260509091200 | 33 | 294 | 0.0 | 0.0 | 0.00 | 0.00 | 0.00 | 96 | 1013.9 |
| 20260509090659 | 33 | 291 | 0.0 | 0.0 | 0.00 | 0.00 | 0.00 | 96 | 1013.9 |
| 20260509090155 | 33 | 275 | 0.0 | 0.0 | 0.00 | 0.00 | 0.00 | 96 | 1013.9 |
| 20260509085653 | 33 | 293 | 0.0 | 0.0 | 0.00 | 0.00 | 0.00 | 96 | 1013.6 |
| 20260509085149 | 33 | 301 | 0.0 | 0.0 | 0.00 | 0.00 | 0.00 | 96 | 1013.8 |
| 20260509084647 | 33 | 307 | 0.0 | 0.0 | 0.00 | 0.00 | 0.00 | 95 | 1013.7 |
| 20260509084143 | 33 | 288 | 0.0 | 0.0 | 0.00 | 0.00 | 0.00 | 95 | 1013.7 |
| 20260509083641 | 34 | 291 | 0.0 | 0.0 | 0.00 | 0.00 | 0.00 | 95 | 1013.9 |
| 20260509083137 | 34 | 309 | 0.0 | 0.0 | 0.00 | 0.00 | 0.00 | 94 | 1013.9 |
| 20260509082634 | 34 | 298 | 0.0 | 0.0 | 0.00 | 0.00 | 0.00 | 94 | 1014.0 |
| 20260509082131 | 34 | 290 | 0.0 | 0.0 | 0.00 | 0.00 | 0.00 | 94 | 1013.9 |
| 20260509081628 | 35 | 291 | 0.0 | 0.0 | 0.00 | 0.00 | 0.00 | 94 | 1014.0 |
| 20260509081125 | 35 | 304 | 0.0 | 0.0 | 0.00 | 0.00 | 0.00 | 93 | 1014.0 |
| 20260509080623 | 35 | 283 | 0.0 | 0.0 | 0.00 | 0.00 | 0.00 | 93 | 1013.9 |
| 20260509080121 | 35 | 283 | 0.0 | 0.0 | 0.00 | 0.00 | 0.00 | 93 | 1014.3 |
| 20260509075619 | 36 | 286 | 0.0 | 0.0 | 0.00 | 0.00 | 0.00 | 92 | 1013.9 |
| 20260509075116 | 36 | 293 | 0.0 | 0.0 | 0.00 | 0.00 | 0.00 | 92 | 1013.8 |
| 20260509074613 | 36 | 291 | 0.0 | 0.0 | 0.00 | 0.00 | 0.00 | 92 | 1013.8 |
| 20260509074109 | 36 | 282 | 0.0 | 0.0 | 0.00 | 0.00 | 0.00 | 91 | 1014.0 |
| 20260509073606 | 37 | 290 | 0.0 | 0.0 | 0.00 | 0.00 | 0.00 | 92 | 1013.9 |
| 20260509073102 | 37 | 289 | 0.0 | 0.0 | 0.00 | 0.00 | 0.00 | 92 | 1013.9 |
| 20260509072559 | 37 | 302 | 0.0 | 0.0 | 0.00 | 0.00 | 0.00 | 91 | 1013.8 |
| 20260509072056 | 37 | 309 | 0.0 | 0.0 | 0.00 | 0.00 | 0.00 | 91 | 1013.9 |
| 20260509071553 | 37 | 292 | 0.0 | 0.0 | 0.00 | 0.00 | 0.00 | 91 | 1013.9 |
| 20260509071050 | 37 | 290 | 0.0 | 0.0 | 0.00 | 0.00 | 0.00 | 91 | 1013.8 |
| 20260509070548 | 37 | 317 | 0.0 | 0.0 | 0.00 | 0.00 | 0.00 | 90 | 1013.7 |
| 20260509070044 | 37 | 291 | 0.0 | 0.0 | 0.00 | 0.00 | 0.00 | 90 | 1013.8 |
| 20260509065539 | 37 | 313 | 0.0 | 0.0 | 0.00 | 0.00 | 0.00 | 90 | 1013.9 |
| 20260509065036 | 38 | 284 | 0.0 | 0.0 | 0.00 | 0.00 | 0.00 | 90 | 1013.7 |
| 20260509064533 | 37 | 300 | 0.0 | 0.0 | 0.00 | 0.00 | 0.00 | 89 | 1013.8 |
| 20260509064031 | 37 | 287 | 0.0 | 0.0 | 0.00 | 0.00 | 0.00 | 90 | 1013.8 |
| 20260509063526 | 38 | 281 | 0.0 | 0.0 | 0.00 | 0.00 | 0.00 | 90 | 1013.7 |
| 20260509063024 | 38 | 311 | 0.0 | 0.0 | 0.00 | 0.00 | 0.00 | 90 | 1013.6 |
| 20260509062521 | 38 | 279 | 0.0 | 0.0 | 0.00 | 0.00 | 0.00 | 89 | 1013.5 |
| 20260509062018 | 38 | 275 | 0.0 | 0.0 | 0.00 | 0.00 | 0.00 | 88 | 1013.3 |
| 20260509061515 | 38 | 275 | 0.0 | 0.0 | 0.00 | 0.00 | 0.00 | 88 | 1013.4 |
| 20260509061012 | 38 | 274 | 0.0 | 0.0 | 0.00 | 0.00 | 0.00 | 87 | 1013.5 |
| 20260509060510 | 38 | 289 | 0.0 | 0.0 | 0.00 | 0.00 | 0.00 | 87 | 1013.4 |
| 20260509060005 | 38 | 285 | 0.0 | 0.0 | 0.00 | 0.00 | 0.00 | 87 | 1013.4 |
| 20260509055501 | 39 | 293 | 0.0 | 0.0 | 0.00 | 0.00 | 0.00 | 87 | 1013.3 |
| 20260509054957 | 39 | 299 | 0.0 | 0.0 | 0.00 | 0.00 | 0.00 | 87 | 1013.2 |
| 20260509054454 | 38 | 291 | 0.0 | 0.0 | 0.00 | 0.00 | 0.00 | 86 | 1012.9 |
| 20260509053952 | 39 | 302 | 0.0 | 0.0 | 0.00 | 0.00 | 0.00 | 86 | 1013.2 |
| 20260509053450 | 39 | 275 | 0.0 | 0.0 | 0.00 | 0.00 | 0.00 | 87 | 1013.3 |
| 20260509052947 | 39 | 270 | 0.0 | 0.0 | 0.00 | 0.00 | 0.00 | 85 | 1013.3 |
| 20260509052444 | 39 | 286 | 0.0 | 0.0 | 0.00 | 0.00 | 0.00 | 85 | 1013.2 |
| 20260509051942 | 39 | 304 | 0.0 | 0.0 | 0.00 | 0.00 | 0.00 | 86 | 1013.3 |
| 20260509051440 | 39 | 299 | 0.0 | 0.0 | 0.00 | 0.00 | 0.00 | 86 | 1013.2 |
| 20260509050937 | 39 | 290 | 0.0 | 0.0 | 0.00 | 0.00 | 0.00 | 86 | 1013.3 |
| 20260509050433 | 39 | 290 | 0.0 | 0.0 | 0.00 | 0.00 | 0.00 | 86 | 1013.3 |
| 20260509045930 | 39 | 289 | 0.0 | 0.0 | 0.00 | 0.00 | 0.00 | 85 | 1013.2 |
| 20260509045427 | 39 | 285 | 0.0 | 0.0 | 0.00 | 0.00 | 0.00 | 85 | 1013.3 |
| 20260509044924 | 39 | 296 | 0.0 | 0.0 | 0.00 | 0.00 | 0.00 | 84 | 1013.3 |
| 20260509044422 | 39 | 297 | 0.0 | 0.0 | 0.00 | 0.00 | 0.00 | 84 | 1013.4 |
| 20260509043919 | 39 | 286 | 0.0 | 0.0 | 0.00 | 0.00 | 0.00 | 84 | 1013.6 |
| 20260509043414 | 39 | 286 | 0.0 | 0.0 | 0.00 | 0.00 | 0.00 | 84 | 1013.3 |
| 20260509042910 | 39 | 286 | 0.0 | 0.0 | 0.00 | 0.00 | 0.00 | 83 | 1013.4 |
| 20260509042407 | 39 | 289 | 0.0 | 0.0 | 0.00 | 0.00 | 0.00 | 84 | 1013.4 |
| 20260509041903 | 39 | 283 | 0.0 | 0.0 | 0.00 | 0.00 | 0.00 | 84 | 1013.3 |
| 20260509041401 | 39 | 283 | 0.0 | 0.0 | 0.00 | 0.00 | 0.00 | 82 | 1013.3 |
| 20260509040859 | 39 | 283 | 0.0 | 0.0 | 0.00 | 0.00 | 0.00 | 82 | 1013.1 |
| 20260509040356 | 39 | 284 | 0.0 | 0.0 | 0.00 | 0.00 | 0.00 | 83 | 1013.0 |
| 20260509035853 | 40 | 284 | 0.0 | 0.0 | 0.00 | 0.00 | 0.00 | 83 | 1013.0 |
| 20260509035350 | 40 | 284 | 0.0 | 0.0 | 0.00 | 0.00 | 0.00 | 82 | 1012.9 |
| 20260509034846 | 40 | 286 | 0.0 | 0.0 | 0.00 | 0.00 | 0.00 | 83 | 1012.7 |
| 20260509034344 | 40 | 301 | 0.0 | 0.0 | 0.00 | 0.00 | 0.00 | 83 | 1012.8 |
| 20260509033841 | 40 | 306 | 0.0 | 0.0 | 0.00 | 0.00 | 0.00 | 82 | 1012.5 |
| 20260509033338 | 40 | 302 | 0.0 | 0.0 | 0.00 | 0.00 | 0.00 | 83 | 1012.6 |
| 20260509032835 | 39 | 290 | 0.0 | 0.0 | 0.00 | 0.00 | 0.00 | 84 | 1012.7 |
| 20260509032332 | 39 | 275 | 0.0 | 0.0 | 0.00 | 0.00 | 0.00 | 83 | 1012.5 |
| 20260509031830 | 39 | 290 | 0.0 | 0.0 | 0.00 | 0.00 | 0.00 | 83 | 1012.6 |
| 20260509031327 | 39 | 289 | 0.0 | 0.0 | 0.00 | 0.00 | 0.00 | 83 | 1012.4 |
| 20260509030825 | 39 | 275 | 0.0 | 0.0 | 0.00 | 0.00 | 0.00 | 82 | 1012.4 |
| 20260509030322 | 39 | 275 | 0.0 | 0.0 | 0.00 | 0.00 | 0.00 | 82 | 1012.4 |
| 20260509025819 | 39 | 275 | 0.0 | 0.0 | 0.00 | 0.00 | 0.00 | 81 | 1012.5 |
| 20260509025314 | 39 | 289 | 0.0 | 0.0 | 0.00 | 0.00 | 0.00 | 83 | 1012.4 |
| 20260509024810 | 39 | 290 | 0.0 | 0.0 | 0.00 | 0.00 | 0.00 | 82 | 1012.3 |
| 20260509024306 | 38 | 286 | 0.0 | 0.0 | 0.00 | 0.00 | 0.00 | 82 | 1012.2 |
| 20260509023803 | 38 | 287 | 0.0 | 0.0 | 0.00 | 0.00 | 0.00 | 82 | 1012.3 |
| 20260509023301 | 38 | 287 | 0.0 | 0.0 | 0.00 | 0.00 | 0.00 | 82 | 1012.4 |
| 20260509022757 | 38 | 299 | 0.0 | 0.0 | 0.00 | 0.00 | 0.00 | 82 | 1012.2 |
| 20260509022255 | 38 | 298 | 0.0 | 0.0 | 0.00 | 0.00 | 0.00 | 82 | 1012.1 |
| 20260509021751 | 37 | 282 | 0.0 | 0.0 | 0.00 | 0.00 | 0.00 | 83 | 1012.3 |
| 20260509021249 | 37 | 284 | 0.0 | 0.0 | 0.00 | 0.00 | 0.00 | 82 | 1012.2 |
| 20260509020746 | 37 | 287 | 0.0 | 0.0 | 0.00 | 0.00 | 0.00 | 82 | 1011.9 |
| 20260509020244 | 37 | 293 | 0.0 | 0.0 | 0.00 | 0.00 | 0.00 | 82 | 1012.0 |
| 20260509015741 | 38 | 287 | 0.0 | 0.0 | 0.00 | 0.00 | 0.00 | 82 | 1011.9 |
| 20260509015239 | 38 | 286 | 0.0 | 0.0 | 0.00 | 0.00 | 0.00 | 80 | 1011.5 |
| 20260509014735 | 38 | 298 | 0.0 | 0.0 | 0.00 | 0.00 | 0.00 | 80 | 1011.6 |
| 20260509014233 | 38 | 285 | 0.0 | 0.0 | 0.00 | 0.00 | 0.00 | 79 | 1011.7 |
| 20260509013729 | 39 | 275 | 0.0 | 0.0 | 0.00 | 0.00 | 0.00 | 79 | 1011.5 |
| 20260509013224 | 39 | 280 | 0.0 | 0.0 | 0.00 | 0.00 | 0.00 | 78 | 1011.4 |
| 20260509012722 | 40 | 287 | 0.0 | 0.0 | 0.00 | 0.00 | 0.00 | 76 | 1011.3 |
| 20260509012218 | 40 | 297 | 0.0 | 0.0 | 0.00 | 0.00 | 0.00 | 75 | 1011.1 |
| 20260509011716 | 40 | 284 | 0.0 | 0.0 | 0.00 | 0.00 | 0.00 | 75 | 1011.2 |
| 20260509011214 | 40 | 282 | 0.0 | 0.0 | 0.00 | 0.00 | 0.00 | 73 | 1011.1 |
| 20260509010711 | 41 | 285 | 0.0 | 0.0 | 0.00 | 0.00 | 0.00 | 73 | 1011.1 |
| 20260509010207 | 41 | 301 | 0.0 | 0.0 | 0.00 | 0.00 | 0.00 | 71 | 1011.0 |
| 20260509005705 | 42 | 299 | 0.0 | 0.0 | 0.00 | 0.00 | 0.00 | 72 | 1010.8 |
| 20260509005201 | 42 | 302 | 0.0 | 0.0 | 0.00 | 0.00 | 0.00 | 70 | 1010.8 |
| 20260509004656 | 43 | 282 | 0.0 | 0.0 | 0.00 | 0.00 | 0.00 | 68 | 1010.8 |
| 20260509004154 | 44 | 279 | 0.0 | 0.0 | 0.00 | 0.00 | 0.00 | 67 | 1010.4 |
| 20260509003653 | 45 | 274 | 0.0 | 0.0 | 0.00 | 0.00 | 0.00 | 66 | 1010.5 |
| 20260509003150 | 45 | 284 | 0.0 | 0.0 | 0.00 | 0.00 | 0.00 | 63 | 1010.4 |
| 20260509002647 | 45 | 279 | 0.0 | 0.0 | 0.00 | 0.00 | 0.00 | 61 | 1010.1 |
| 20260509002144 | 46 | 276 | 0.0 | 0.0 | 0.00 | 0.00 | 0.00 | 59 | 1010.1 |
| 20260509001642 | 47 | 287 | 0.0 | 0.0 | 0.00 | 0.00 | 0.00 | 57 | 1010.0 |
| 20260509001137 | 48 | 284 | 0.0 | 0.0 | 0.00 | 0.00 | 0.00 | 54 | 1010.1 |
| 20260509000636 | 49 | 279 | 0.0 | 0.0 | 0.00 | 0.00 | 0.00 | 51 | 1010.1 |
| 20260509000132 | 50 | 292 | 0.0 | 0.0 | 0.00 | 0.00 | 0.00 | 50 | 1010.0 |
| 20260508235629 | 50 | 254 | 0.0 | 1.0 | 0.00 | 0.00 | 0.00 | 48 | 1010.0 |
| 20260508235126 | 50 | 288 | 0.0 | 0.0 | 0.00 | 0.00 | 0.00 | 49 | 1009.8 |
| 20260508234623 | 50 | 324 | 0.0 | 0.0 | 0.00 | 0.00 | 0.00 | 48 | 1009.8 |
| 20260508234119 | 51 | 280 | 0.0 | 0.0 | 0.00 | 0.00 | 0.00 | 48 | 1009.5 |
| 20260508233619 | 51 | 275 | 0.0 | 0.0 | 0.00 | 0.00 | 0.00 | 48 | 1009.6 |
| 20260508233116 | 52 | 287 | 0.0 | 0.0 | 0.00 | 0.00 | 0.00 | 45 | 1009.5 |
| 20260508232613 | 53 | 287 | 1.0 | 2.0 | 0.00 | 0.00 | 0.00 | 44 | 1009.4 |
| 20260508232109 | 53 | 236 | 1.0 | 2.0 | 0.00 | 0.00 | 0.00 | 44 | 1009.4 |
| 20260508231607 | 54 | 315 | 0.0 | 1.0 | 0.00 | 0.00 | 0.00 | 43 | 1009.5 |
| 20260508231104 | 54 | 278 | 0.0 | 1.0 | 0.00 | 0.00 | 0.00 | 43 | 1009.4 |
| 20260508230601 | 54 | 357 | 1.0 | 1.0 | 0.00 | 0.00 | 0.00 | 43 | 1009.3 |
| 20260508230057 | 54 | 247 | 2.0 | 3.0 | 0.00 | 0.00 | 0.00 | 42 | 1009.3 |
| 20260508225555 | 53 | 276 | 0.0 | 0.0 | 0.00 | 0.00 | 0.00 | 44 | 1009.2 |
| 20260508225051 | 53 | 241 | 0.0 | 0.0 | 0.00 | 0.00 | 0.00 | 43 | 1009.3 |
| 20260508224550 | 53 | 307 | 2.0 | 3.0 | 0.00 | 0.00 | 0.00 | 44 | 1009.4 |
| 20260508224046 | 53 | 15 | 0.0 | 1.0 | 0.00 | 0.00 | 0.00 | 45 | 1009.0 |
| 20260508223544 | 53 | 344 | 1.0 | 1.0 | 0.00 | 0.00 | 0.00 | 44 | 1009.3 |
| 20260508223041 | 53 | 276 | 0.0 | 0.0 | 0.00 | 0.00 | 0.00 | 45 | 1009.2 |
| 20260508222539 | 54 | 227 | 3.0 | 3.0 | 0.00 | 0.00 | 0.00 | 44 | 1009.0 |
| 20260508222035 | 54 | 300 | 0.0 | 0.0 | 0.00 | 0.00 | 0.00 | 45 | 1009.0 |
| 20260508221532 | 56 | 357 | 4.0 | 6.0 | 0.00 | 0.00 | 0.00 | 42 | 1009.1 |
| 20260508221027 | 55 | 319 | 0.0 | 1.0 | 0.00 | 0.00 | 0.00 | 45 | 1009.0 |
| 20260508220524 | 54 | 266 | 2.0 | 2.0 | 0.00 | 0.00 | 0.00 | 44 | 1008.9 |
| 20260508220021 | 53 | 290 | 1.0 | 2.0 | 0.00 | 0.00 | 0.00 | 45 | 1008.8 |
| 20260508215518 | 54 | 249 | 0.0 | 1.0 | 0.00 | 0.00 | 0.00 | 44 | 1008.9 |